Address 0xb341e796634a8a5ac86cbd75d6da9ff3c8f17038

 

Overview

Balance:
0.322516139061835132 BNB

BNB Value:
$98.97 (@ $306.86/BNB)
 
Txn Hash
Block
From
To
Value [Txn Fee]
0x9330a40f707ac8af34eb790d95c9ac45112fa0452359d14f3c542ba69db411c894389092021-07-24 14:09:352 days 10 hrs ago0xb341e796634a8a5ac86cbd75d6da9ff3c8f17038OUT 0xf1b08ead7894e255a38babec2be391d41d5ac4940 BNB0.00102416
0x099e4225f3a5780b744f624a7ea2328a40cb3eaa03e8e57d01cecf3a397889b394388922021-07-24 14:08:442 days 10 hrs ago0xb341e796634a8a5ac86cbd75d6da9ff3c8f17038OUT 0xa9a438b8b2e41b3bf322dba139af9490dc2269530 BNB0.000660725
0xa56163a316ba70ade8754ba0b4b51d65ac09180b5805dce94e7128071f16bc6485234892021-06-22 16:41:5934 days 8 hrs ago0xb341e796634a8a5ac86cbd75d6da9ff3c8f17038OUT PancakeSwap: Auto CAKE Syrup Pool0 BNB0.0011537
0x65ceef3502fd4fe31e83e37f0ea79a11663b8eeefba6f12924e9db5069e5d78385234642021-06-22 16:40:4434 days 8 hrs ago0xb341e796634a8a5ac86cbd75d6da9ff3c8f17038OUT PancakeSwap: Router v20.32 BNB0.00053634
0xe1fed9e8240d27ccf733ced020cafa7d7c9ba3527e766fba3975f3c7f77d565185234472021-06-22 16:39:5334 days 8 hrs ago0xb341e796634a8a5ac86cbd75d6da9ff3c8f17038OUT PancakeSwap: Router v20 BNB0.00089507
0x72d65a0b0b1dda0259e1ffd73e473d4394181951c7e09de5a1a9927f09be85a285234332021-06-22 16:39:1134 days 8 hrs ago0xb341e796634a8a5ac86cbd75d6da9ff3c8f17038OUT Polkadot: DOT Token0 BNB0.00022203
0xd11061574356c15d0f318b18e712c39b4df65da8a50a49149f1638e4c798a48285233222021-06-22 16:33:2534 days 8 hrs ago0xb341e796634a8a5ac86cbd75d6da9ff3c8f17038OUT PantherSwap: Router0 BNB0.00093441
0x82337af67ff83dcac9956c7281fa03c6e2fba7d3b745ad480e4df7818876214685233132021-06-22 16:32:5734 days 8 hrs ago0xb341e796634a8a5ac86cbd75d6da9ff3c8f17038OUT 0xbf72e6296acecb9916a8fddafadfbd77a46744bd0 BNB0.000221655
0xbfb9c4ea2bbd696a80a901605745be1d6998826584963adfdbb365d3998c38d185232912021-06-22 16:31:4634 days 8 hrs ago0xb341e796634a8a5ac86cbd75d6da9ff3c8f17038OUT 0x058451c62b96c594ad984370eda8b6fd7197bbd40 BNB0.001270685
0x36cf0d6496e07cca19b6c663d731783523831f7c1c8ae63dcd1296be9780aa2f85232752021-06-22 16:30:5234 days 8 hrs ago0xb341e796634a8a5ac86cbd75d6da9ff3c8f17038OUT 0x058451c62b96c594ad984370eda8b6fd7197bbd40 BNB0.000931425
0xe444275678efcd9f85af793a8e42e9ed14b4d3743560eab342030eaa72902a0681883042021-06-10 23:14:2846 days 1 hr ago0xb341e796634a8a5ac86cbd75d6da9ff3c8f17038OUT 0xf1b08ead7894e255a38babec2be391d41d5ac4940 BNB0.00059146
0x7ee4c9eded3e13b52b48d405d362c3bda10529fadb9f6e2a55052d64b28125a581882842021-06-10 23:13:2846 days 1 hr ago0xb341e796634a8a5ac86cbd75d6da9ff3c8f17038OUT 0xa9a438b8b2e41b3bf322dba139af9490dc2269530 BNB0.000571705
0x55a0b7a4c406eee287ba2bce1df0f0703df8364345ac7c116252ab59eef69d0a81882542021-06-10 23:11:5846 days 1 hr ago0xb341e796634a8a5ac86cbd75d6da9ff3c8f17038OUT PancakeSwap: Router0 BNB0.00055773
0x5dd8c1f548477d57b30e1a0f4567342758a315865d9aa34a6adeccc9004b1de181882452021-06-10 23:11:3146 days 1 hr ago0xb341e796634a8a5ac86cbd75d6da9ff3c8f17038OUT TreeDefi: TREE Token0 BNB0.00022263
0x306793f37777963a57b648445eb7636fea0ae83c051c50521d1c709d7e47637f81882182021-06-10 23:10:1046 days 1 hr ago0xb341e796634a8a5ac86cbd75d6da9ff3c8f17038OUT 0x2ed65f4f945b878465d1aef46b019a986ba702680 BNB0.000425555
0x7d50950c1a57745a4659990a07352cddaf604f87ae3512d24c1dd7cc55dd880a81882132021-06-10 23:09:5546 days 1 hr ago0xb341e796634a8a5ac86cbd75d6da9ff3c8f17038OUT 0x2ed65f4f945b878465d1aef46b019a986ba702680 BNB0.0003749
0x8cfdde1208339853fad329898e158836655770b52140cb0c8712cbc5babb122280947862021-06-07 17:03:2849 days 7 hrs ago0xb341e796634a8a5ac86cbd75d6da9ff3c8f17038OUT 0xf1b08ead7894e255a38babec2be391d41d5ac4940 BNB0.001010135
0x7bfac5984f4e960e7e8cbdcb770429216685c7253cd799897a62d9702d9e50ad80947572021-06-07 17:02:0149 days 7 hrs ago0xb341e796634a8a5ac86cbd75d6da9ff3c8f17038OUT 0xa9a438b8b2e41b3bf322dba139af9490dc2269530 BNB0.000571705
0xf59a8985a1376273e9095d36ae6a75302ceef75fe9b5897739957850cfcae40379733602021-06-03 11:38:2553 days 13 hrs ago0xb341e796634a8a5ac86cbd75d6da9ff3c8f17038OUT 0xf1b08ead7894e255a38babec2be391d41d5ac4940 BNB0.00138274
0xb0c285d98faddfd207f93cd9d6f61a452474bb46ef6767339566cdd37c35194579732982021-06-03 11:35:1953 days 13 hrs ago0xb341e796634a8a5ac86cbd75d6da9ff3c8f17038OUT 0xa9a438b8b2e41b3bf322dba139af9490dc2269530 BNB0.000644365
0xcf9e51d564cff5387285d9093a2e4ed2f77ec27515080dcfc8fad1ff7d99d4a479732152021-06-03 11:30:5353 days 13 hrs ago0xb341e796634a8a5ac86cbd75d6da9ff3c8f17038OUT TreeDefi: SEED Token0 BNB0.00022263
0xb6d2b1f210717235f845c86200506b50a7481bd2de627e19ab88500357fc981b78627822021-05-30 15:08:2057 days 9 hrs ago0xb341e796634a8a5ac86cbd75d6da9ff3c8f17038OUT 0x2ed65f4f945b878465d1aef46b019a986ba702680 BNB0.00050719
0x7785bf159cbdc18a8c9f1294c0a329945d08b430ce787951ef05a793346d406878627772021-05-30 15:08:0557 days 9 hrs ago0xb341e796634a8a5ac86cbd75d6da9ff3c8f17038OUT TreeDefi: SEED Token0 BNB0.00022263
0xd67966927a2d4948a413cdf247c568ab5e5ea86b5e97f7253497dde462d60c2678627462021-05-30 15:06:3257 days 9 hrs ago0xb341e796634a8a5ac86cbd75d6da9ff3c8f17038OUT 0xa9a438b8b2e41b3bf322dba139af9490dc2269530 BNB0.000569365
0x6d1532062130b656fb4a3554c0cb639bced21a3f7fec4b596767ad6a378db5b778627162021-05-30 15:05:0257 days 9 hrs ago0xb341e796634a8a5ac86cbd75d6da9ff3c8f17038OUT 0xf061353de352a9b8530123b6536774f7565ce4880 BNB0.000406675
[ Download CSV Export 
Latest 7 internal transactions
Parent Txn Hash Block From To Value
0xd11061574356c15d0f318b18e712c39b4df65da8a50a49149f1638e4c798a48285233222021-06-22 16:33:2534 days 8 hrs ago PantherSwap: Router0xb341e796634a8a5ac86cbd75d6da9ff3c8f170380.477732707385158131 BNB
0x29326413eb331a4da9abcc8b9e7b5792e2f412de830101a0550671d548bce7e773089282021-05-11 0:51:4376 days 23 hrs ago PancakeSwap: Router v20xb341e796634a8a5ac86cbd75d6da9ff3c8f170380.005102192347778127 BNB
0xb6fb44dc7caef4f7acd633930bba863341e7e5ed6c330f2480ddd817af485e4a72274412021-05-07 23:59:0480 days 46 mins ago PancakeSwap: Router0xb341e796634a8a5ac86cbd75d6da9ff3c8f170380.000129481008077711 BNB
0xabb81d6b16b983541d74e8ffdac83f04b9c3cb3d0579943df29b03f2ea8d830a72273902021-05-07 23:56:3180 days 48 mins ago PancakeSwap: Router v20xb341e796634a8a5ac86cbd75d6da9ff3c8f170380.328090165720089619 BNB
0x86b8d25b3edeb20ab4df1c3e458143f8dd847779db759e1a40787a5a4d351e2271946192021-05-06 20:09:1281 days 4 hrs ago PancakeSwap: Router v20xb341e796634a8a5ac86cbd75d6da9ff3c8f170380.317095442504767987 BNB
0x268c2fdff8259d84f3046d22f05e0a9db9abdabff062daeb80df94b58cc6812b71152442021-05-04 0:38:5484 days 6 mins ago PancakeSwap: Router v20xb341e796634a8a5ac86cbd75d6da9ff3c8f170380.199806885931056958 BNB
0x6687b3b6af2f4dbe8bfdafa346fed773cdebd67e12f9f8af442c85ecc1ed2e1c71152122021-05-04 0:37:1884 days 8 mins ago PancakeSwap: Router v20xb341e796634a8a5ac86cbd75d6da9ff3c8f170380.030359423651875747 BNB
[ Download CSV Export 
Loading

Contract Name:
0 BNB

Compiler Version
0

Optimization Enabled:
0 BNB

Other Settings:
-NA-
Block Transaction Gas Used Reward
Age Block Fee Address BC Fee Address Voting Power Jailed Incoming
Block Uncle Number Difficulty Gas Used Reward
Loading
Loading
Make sure to use the "Vote Down" button for any spammy posts, and the "Vote Up" for interesting conversations.